星链-30452 (STARLINK-30452 )

导读

STARLINK-30452是美国SpaceX公司星链(Starlink)星座中的一颗低轨通信卫星,于2023年9月24日发射升空。它属于星链第二代卫星组网的组成部分,依托星链星座的激光星间链路技术,为全球提供高速低延迟宽带互联网服务,尤其能够覆盖偏远、传统网络基础设施不足区域,推动了全球卫星互联网的发展。

Basic Information
目录编号:
57925
目录名称:
STARLINK-30452
国际标识:
2023-147N
轨道中心:
EARTH
卫星名称:
星链-30452
卫星全名:
星链-30452 (STARLINK-30452 )
卫星状态:
在轨 (已飞行1083 天)
发射日期:
2023-09-24 UTC
国别 :
美国 (US)
星等 :
--
This satellite is enrolled in the Space Conjunction Data Service (SCDS) and the current flight risk assessment level is: High Risk
Orbit Information
数据来源 国际轨道数据
星历时间: 2026-09-11T15:48:50+0800
7小时前
查看轨道信息
半长轴: 6861.205km
偏心率: 0.0001687
轨道倾角: 43.004°
近地点辐角 275.895°
升交点赤经 357.255°
平近点角 84.171°
近地点: 481.91km
远地点: 484.226km
周期: 94.267分钟
每日圈数: 15.275737
Detailed Information
固有亮度:
5
最大亮度:
0.3
卫星平台:
Starlink v2.0 mini
覆盖范围:
全球
运营商:
太空探索技术公司
运营商所在国:
美国
制造商(研发单位):
太空探索技术公司
制造商所在国:
美国
使用方式:
暂无
Satellite Introduction
星链(Starlink)计划是由太空探索技术公司(SpaceX)提出的一个巨型低轨卫星互联网星座项目,计划在2019年至2024年间在太空搭建由约1.2万颗卫星组成的“星链”网络,其中1584颗将部署在地球上空550千米处的近地轨道,并从2020年开始工作。该卫星仍在工作。
2D Orbit Map
3D Orbit Map
Orbit Altitude Analysis Chart
Orbit Inclination Analysis Chart
Orbit Comprehensive Analysis Chart
View Comprehensive Chart
Conjunction Data List
Event ID Objects TCA Miss Dist (km) Collision Risk Probability Collision Risk Index (CRI) Action
CDM_260913-145005-792506-197221
2026-09-13T
14:50:26+0000
0.404 km
远距离
2.569074E-4 高风险 0.83
CDM_260912-151705-792506-391221
2026-09-12T
15:17:25+0000
0.746 km
远距离
5.428982E-5 中风险 0.7
CDM_260913-184705-792506-793321
2026-09-13T
18:47:35+0000
0.861 km
远距离
3.31659E-5 中风险 0.65
CDM_260913-052705-792506-793321
2026-09-13T
05:27:16+0000
0.924 km
远距离
2.62428E-5 中风险 0.63
CDM_260911-073105-792506-696121
2026-09-11T
07:31:03+0000
0.853 km
远距离
2.177798E-5 中风险 0.62
CDM_260912-204205-511205-792521
2026-09-12T
20:42:28+0000
0.916 km
远距离
2.164114E-5 中风险 0.62
CDM_260911-143405-792506-696121
2026-09-11T
14:34:45+0000
1.282 km
极远距离
5.410822E-6 低风险 0.5
CDM_260911-160805-792506-696121
2026-09-11T
16:08:54+0000
1.355 km
极远距离
4.498362E-6 低风险 0.48
CDM_260913-043705-792506-391221
2026-09-13T
04:37:44+0000
1.669 km
极远距离
3.694153E-6 低风险 0.46
CDM_260913-070105-792506-793321
2026-09-13T
07:01:25+0000
1.782 km
极远距离
2.964577E-6 低风险 0.44
Miss Distance Evolution Trend with All Objects
Collision Probability Evolution Trend with All Objects